Cambridge, MD

10:27 PM EDT on May 27, 2018 (GMT -0400)
Cambridge-Dorchester

Weather History for KCGE - August, 2014

Change the Weather History Date:

Saturday, August 9, 2014

  Actual Average (KESN) Record (KESN)
Temperature  
Mean Temperature 71 °F -  
Max Temperature 80 °F 86 °F 93 °F (1949)
Min Temperature 62 °F 66 °F 52 °F (1964)
Cooling Degree Days 6    
Growing Degree Days 21 (Base 50)    
Moisture  
Dew Point 62 °F    
Average Humidity 73    
Maximum Humidity 94    
Minimum Humidity 48    
Precipitation  
Precipitation 0.00 in - - ()
Sea Level Pressure  
Sea Level Pressure 30.10 in    
Wind  
Wind Speed 1 mph (SE)    
Max Wind Speed 7 mph    
Max Gust Speed -    
Visibility 10 miles    
Events      
Averages and records for this station are not official NWS values.
T = Trace of Precipitation, MM = Missing Value Source: NWS Daily Summary

Daily Weather History Graph

Daily Weather History Graph

Search for Another Location

Airport or City:

Astronomy

Aug. 09, 2014 Rise Set
Actual Time 6:12 AM EDT 8:05 PM EDT
Civil Twilight 5:44 AM EDT 8:34 PM EDT
Nautical Twilight 5:09 AM EDT 9:09 PM EDT
Astronomical Twilight 4:31 AM EDT 9:46 PM EDT
Moon 7:05 PM EDT (8/9) 4:51 AM EDT (8/9)
Length of Visible Light 14h 50m
Length of Day
13h 52m
Waxing Gibbous, 98% of the Moon is Illuminated
Aug 9
Waxing Gibbous
Aug 10
Full
Aug 17
Last Quarter
Aug 25
New
Sep 2
First Quarter

Hourly Weather History & Observations

Time (EDT) Temp. Heat Index Dew Point Humidity Pressure Visibility Wind Dir Wind Speed Gust Speed Precip Events Conditions
12:01 AM 64.4 °F - 60.8 °F 88% 30.11 in 10.0 mi Calm Calm - N/A   Clear
12:21 AM 64.4 °F - 60.8 °F 88% 30.12 in 10.0 mi Calm Calm - N/A   Clear
12:41 AM 64.4 °F - 60.8 °F 88% 30.11 in 10.0 mi Calm Calm - N/A   Clear
1:21 AM 62.6 °F - 59.0 °F 88% 30.11 in 10.0 mi Calm Calm - N/A   Clear
1:41 AM 62.6 °F - 59.0 °F 88% 30.10 in 10.0 mi Calm Calm - N/A   Scattered Clouds
2:01 AM 62.6 °F - 60.8 °F 94% 30.10 in 10.0 mi Calm Calm - N/A   Clear
2:21 AM 62.6 °F - 59.0 °F 88% 30.10 in 10.0 mi Calm Calm - N/A   Clear
2:42 AM 62.6 °F - 60.8 °F 94% 30.10 in 10.0 mi Calm Calm - N/A   Clear
3:02 AM 62.6 °F - 59.0 °F 88% 30.10 in 10.0 mi Calm Calm - N/A   Clear
3:22 AM 62.6 °F - 60.8 °F 94% 30.10 in 10.0 mi Calm Calm - N/A   Scattered Clouds
3:42 AM 62.6 °F - 59.0 °F 88% 30.09 in 10.0 mi Calm Calm - N/A   Scattered Clouds
4:02 AM 62.6 °F - 60.8 °F 94% 30.09 in 10.0 mi Calm Calm - N/A   Clear
4:22 AM 62.6 °F - 60.8 °F 94% 30.09 in 10.0 mi Calm Calm - N/A   Clear
4:42 AM 62.6 °F - 60.8 °F 94% 30.09 in 10.0 mi Calm Calm - N/A   Mostly Cloudy
5:02 AM 64.4 °F - 60.8 °F 88% 30.09 in 10.0 mi Calm Calm - N/A   Mostly Cloudy
5:22 AM 64.4 °F - 60.8 °F 88% 30.09 in 10.0 mi Calm Calm - N/A   Scattered Clouds
5:42 AM 62.6 °F - 59.0 °F 88% 30.10 in 10.0 mi Calm Calm - N/A   Scattered Clouds
6:02 AM 62.6 °F - 60.8 °F 94% 30.10 in 10.0 mi Calm Calm - N/A   Scattered Clouds
6:22 AM 62.6 °F - 60.8 °F 94% 30.10 in 10.0 mi Calm Calm - N/A   Scattered Clouds
6:42 AM 62.6 °F - 60.8 °F 94% 30.11 in 10.0 mi Calm Calm - N/A   Scattered Clouds
7:22 AM 64.4 °F - 60.8 °F 88% 30.11 in 10.0 mi Calm Calm - N/A   Clear
7:42 AM 64.4 °F - 60.8 °F 88% 30.12 in 10.0 mi Calm Calm - N/A   Scattered Clouds
8:02 AM 69.8 °F - 64.4 °F 83% 30.12 in 10.0 mi Calm Calm - N/A   Scattered Clouds
8:22 AM 71.6 °F - 68.0 °F 88% 30.12 in 10.0 mi Calm Calm - N/A   Scattered Clouds
8:42 AM 71.6 °F - 66.2 °F 83% 30.12 in 10.0 mi SE 4.6 mph - N/A   Scattered Clouds
9:02 AM 73.4 °F - 66.2 °F 78% 30.11 in 10.0 mi Calm Calm - N/A   Clear
9:22 AM 77.0 °F - 68.0 °F 74% 30.12 in 10.0 mi SSE 4.6 mph - N/A   Clear
9:42 AM 77.0 °F - 64.4 °F 65% 30.12 in 10.0 mi Calm Calm - N/A   Clear
10:02 AM 78.8 °F - 62.6 °F 57% 30.12 in 10.0 mi Calm Calm - N/A   Clear
10:22 AM 78.8 °F - 60.8 °F 54% 30.12 in 10.0 mi East 4.6 mph - N/A   Clear
10:42 AM 78.8 °F - 59.0 °F 51% 30.12 in 10.0 mi SE 3.5 mph - N/A   Clear
11:02 AM 80.6 °F 81.5 °F 60.8 °F 51% 30.13 in 10.0 mi SSE 4.6 mph - N/A   Clear
11:23 AM 80.6 °F 81.5 °F 60.8 °F 51% 30.13 in 10.0 mi SSE 3.5 mph - N/A   Clear
11:43 AM 80.6 °F 81.5 °F 60.8 °F 51% 30.12 in 10.0 mi SE 4.6 mph - N/A   Clear
12:03 PM 80.6 °F 81.5 °F 60.8 °F 51% 30.12 in 10.0 mi SSE 4.6 mph - N/A   Scattered Clouds
12:23 PM 80.6 °F 81.5 °F 60.8 °F 51% 30.12 in 10.0 mi Calm Calm - N/A   Mostly Cloudy
12:43 PM 80.6 °F 81.1 °F 59.0 °F 48% 30.11 in 10.0 mi SSE 4.6 mph - N/A   Clear
1:03 PM 80.6 °F 81.5 °F 60.8 °F 51% 30.11 in 10.0 mi ESE 3.5 mph - N/A   Mostly Cloudy
1:23 PM 80.6 °F 81.5 °F 60.8 °F 51% 30.12 in 10.0 mi SE 4.6 mph - N/A   Scattered Clouds
2:03 PM 80.6 °F 81.8 °F 62.6 °F 54% 30.11 in 10.0 mi Calm Calm - N/A   Mostly Cloudy
2:23 PM 80.6 °F 81.8 °F 62.6 °F 54% 30.11 in 10.0 mi Calm Calm - N/A   Mostly Cloudy
2:43 PM 80.6 °F 81.8 °F 62.6 °F 54% 30.10 in 10.0 mi Calm Calm - N/A   Mostly Cloudy
3:03 PM 80.6 °F 81.8 °F 62.6 °F 54% 30.10 in 10.0 mi Calm Calm - N/A   Mostly Cloudy
3:23 PM 80.6 °F 81.5 °F 60.8 °F 51% 30.10 in 10.0 mi Calm Calm - N/A   Scattered Clouds
3:43 PM 80.6 °F 81.5 °F 60.8 °F 51% 30.09 in 10.0 mi ESE 4.6 mph - N/A   Scattered Clouds
4:23 PM 80.6 °F 81.5 °F 60.8 °F 51% 30.08 in 10.0 mi SSE 3.5 mph - N/A   Clear
5:03 PM 80.6 °F 81.1 °F 59.0 °F 48% 30.08 in 10.0 mi South 3.5 mph - N/A   Clear
5:23 PM 80.6 °F 81.8 °F 62.6 °F 54% 30.08 in 10.0 mi South 3.5 mph - N/A   Clear
5:43 PM 80.6 °F 82.3 °F 64.4 °F 58% 30.08 in 10.0 mi Calm Calm - N/A   Clear
6:03 PM 78.8 °F - 62.6 °F 57% 30.08 in 10.0 mi Calm Calm - N/A   Clear
6:23 PM 78.8 °F - 62.6 °F 57% 30.07 in 10.0 mi Calm Calm - N/A   Scattered Clouds
6:43 PM 78.8 °F - 66.2 °F 65% 30.07 in 10.0 mi Calm Calm - N/A   Clear
7:44 PM 77.0 °F - 68.0 °F 74% 30.08 in 10.0 mi ESE 6.9 mph - N/A   Scattered Clouds
8:04 PM 77.0 °F - 66.2 °F 69% 30.08 in 10.0 mi SE 4.6 mph - N/A   Scattered Clouds
8:24 PM 77.0 °F - 68.0 °F 74% 30.09 in 10.0 mi SE 4.6 mph - N/A   Clear
8:44 PM 73.4 °F - 66.2 °F 78% 30.10 in 10.0 mi Calm Calm - N/A   Scattered Clouds
9:04 PM 73.4 °F - 66.2 °F 78% 30.10 in 10.0 mi SE 4.6 mph - N/A   Scattered Clouds
9:24 PM 71.6 °F - 66.2 °F 83% 30.11 in 10.0 mi Calm Calm - N/A   Scattered Clouds
10:04 PM 73.4 °F - 66.2 °F 78% 30.12 in 10.0 mi SE 3.5 mph - N/A   Mostly Cloudy
10:24 PM 71.6 °F - 66.2 °F 83% 30.12 in 10.0 mi Calm Calm - N/A   Scattered Clouds
10:44 PM 71.6 °F - 64.4 °F 78% 30.12 in 10.0 mi Calm Calm - N/A   Mostly Cloudy
11:04 PM 71.6 °F - 66.2 °F 83% 30.12 in 10.0 mi Calm Calm - N/A   Mostly Cloudy
11:24 PM 71.6 °F - 66.2 °F 83% 30.12 in 10.0 mi Calm Calm - N/A   Scattered Clouds